User: anonymous   Login
Location: Unspecified
(0.0000°N, 0.0000°E)
Time: 12:29:41
(UTC+02:00)
Language:

Iridium 15 - Orbit

View from above orbital plane
View from above orbital plane
View from above satellite
View from above satellite

Ground track
Ground track

The orbit data is extracted from the following two-line orbital elements,

1 24869U 97034A   18113.87401285 +.00000108 +00000-0 +28915-4 0  9999
2 24869 086.4184 252.0485 0002475 090.4164 269.7318 14.38603659088333
Epoch (UTC): 23 April 2018 20:58:34
Eccentricity: 0.0002475
inclination: 86.4184°
perigee height: 761 km
apogee height: 765 km
right ascension of ascending node: 252.0485°
argument of perigee: 90.4164°
revolutions per day: 14.38603659
mean anomaly at epoch: 269.7318°
orbit number at epoch: 8833

The dashed part of the orbit path shows where the satellite is in the earth's shadow,  

DLR